• In Uzbekistan
  • List of Countries
  • For 7 days
  • Water Temperature
  • Satellite Maps
  • Weather Map
  • Weather Widgets
  • user-avatar
    Login

    Hourly Weather Knighton

    Today, 15 December, Friday

    Time Temperature Precipitation Wind Pressure Humidity
    00:00 0°C° 0 mm 5 mps 712 mmHg 89%
    01:00 -1°C° 0.4 mm 6 mps 713 mmHg 89%
    02:00 +1°C° 0.4 mm 6 mps 713 mmHg 88%
    03:00 0°C° 0.4 mm 7 mps 714 mmHg 87%
    04:00 -1°C° 0.1 mm 6 mps 714 mmHg 87%
    05:00 -1°C° 0.1 mm 6 mps 715 mmHg 87%
    06:00 -2°C° 0.1 mm 6 mps 716 mmHg 87%
    07:00 -2°C° 0 mm 6 mps 717 mmHg 87%
    08:00 -1°C° 0 mm 5 mps 718 mmHg 86%
    09:00 -1°C° 0 mm 5 mps 719 mmHg 86%
    10:00 0°C° 0 mm 5 mps 720 mmHg 84%
    11:00 +1°C° 0 mm 5 mps 721 mmHg 82%
    12:00 +1°C° 0 mm 6 mps 722 mmHg 80%
    13:00 +1°C° 0 mm 6 mps 723 mmHg 81%
    14:00 +1°C° 0 mm 6 mps 723 mmHg 83%
    15:00 +1°C° 0 mm 6 mps 724 mmHg 84%
    16:00 +1°C° 0 mm 5 mps 725 mmHg 85%
    17:00 0°C° 0 mm 5 mps 726 mmHg 85%
    18:00 -1°C° 0 mm 5 mps 727 mmHg 86%
    19:00 -1°C° 0 mm 4 mps 727 mmHg 86%
    20:00 -2°C° 0 mm 4 mps 728 mmHg 86%
    21:00 -1°C° 0 mm 3 mps 729 mmHg 87%
    22:00 -1°C° 0 mm 3 mps 729 mmHg 87%
    23:00 -2°C° 0 mm 3 mps 730 mmHg 87%

    Tomorrow, 16 December, Saturday

    Time Temperature Precipitation Wind Pressure Humidity
    00:00 -2°C° 0 mm 3 mps 730 mmHg 87%
    01:00 -2°C° 0 mm 3 mps 731 mmHg 88%
    02:00 -1°C° 0 mm 3 mps 731 mmHg 88%
    03:00 -1°C° 0 mm 3 mps 732 mmHg 88%
    04:00 -1°C° 0 mm 3 mps 732 mmHg 88%
    05:00 -1°C° 0 mm 3 mps 732 mmHg 88%
    06:00 -1°C° 0 mm 3 mps 732 mmHg 89%
    07:00 -1°C° 0.1 mm 3 mps 733 mmHg 89%
    08:00 0°C° 0.1 mm 3 mps 733 mmHg 90%
    09:00 0°C° 0.1 mm 3 mps 733 mmHg 91%
    10:00 +1°C° 0.1 mm 3 mps 734 mmHg 88%
    11:00 +2°C° 0.1 mm 3 mps 734 mmHg 86%
    12:00 +3°C° 0.1 mm 3 mps 734 mmHg 83%
    13:00 +2°C° 0 mm 3 mps 735 mmHg 84%
    14:00 +3°C° 0 mm 2 mps 735 mmHg 86%
    15:00 +3°C° 0 mm 2 mps 735 mmHg 87%
    16:00 +2°C° 0 mm 2 mps 735 mmHg 88%
    17:00 +1°C° 0 mm 2 mps 736 mmHg 89%
    18:00 +1°C° 0 mm 2 mps 736 mmHg 91%
    19:00 +1°C° 0 mm 2 mps 736 mmHg 91%
    20:00 +1°C° 0 mm 2 mps 737 mmHg 91%
    21:00 +1°C° 0 mm 2 mps 737 mmHg 91%
    22:00 -1°C° 0 mm 2 mps 737 mmHg 91%
    23:00 -1°C° 0 mm 2 mps 737 mmHg 92%

    Day after tomorrow, 17 December, Sunday

    Time Temperature Precipitation Wind Pressure Humidity
    00:00 -1°C° 0 mm 2 mps 738 mmHg 92%
    01:00 +1°C° 0 mm 2 mps 738 mmHg 92%
    02:00 +1°C° 0 mm 2 mps 738 mmHg 93%
    03:00 +1°C° 0 mm 2 mps 737 mmHg 93%
    04:00 +1°C° 0 mm 2 mps 737 mmHg 94%
    05:00 0°C° 0 mm 3 mps 737 mmHg 94%
    06:00 0°C° 0 mm 3 mps 737 mmHg 94%
    07:00 +1°C° 0 mm 3 mps 737 mmHg 94%
    08:00 +2°C° 0 mm 3 mps 737 mmHg 94%
    09:00 +1°C° 0 mm 4 mps 738 mmHg 94%
    10:00 +2°C° 0.1 mm 5 mps 737 mmHg 92%
    11:00 +3°C° 0.1 mm 6 mps 737 mmHg 91%
    12:00 +5°C° 0.1 mm 7 mps 737 mmHg 89%
    13:00 +5°C° 0.5 mm 7 mps 736 mmHg 90%
    14:00 +5°C° 0.5 mm 7 mps 736 mmHg 91%
    15:00 +5°C° 0.5 mm 8 mps 736 mmHg 91%
    16:00 +5°C° 0.2 mm 7 mps 736 mmHg 92%
    17:00 +7°C° 0.2 mm 6 mps 735 mmHg 93%
    18:00 +7°C° 0.2 mm 6 mps 735 mmHg 94%
    19:00 +7°C° 0 mm 5 mps 736 mmHg 94%
    20:00 +7°C° 0 mm 5 mps 736 mmHg 94%
    21:00 +7°C° 0 mm 4 mps 737 mmHg 94%
    22:00 +7°C° 0 mm 4 mps 737 mmHg 94%
    23:00 +7°C° 0 mm 3 mps 738 mmHg 95%

    18 December, Monday

    Time Temperature Precipitation Wind Pressure Humidity
    00:00 +7°C° 0 mm 2 mps 738 mmHg 95%
    01:00 +6°C° 0 mm 2 mps 738 mmHg 94%
    02:00 +6°C° 0 mm 2 mps 739 mmHg 94%
    03:00 +6°C° 0 mm 1 mps 739 mmHg 94%
    04:00 +6°C° 0 mm 1 mps 739 mmHg 93%
    05:00 +5°C° 0 mm 1 mps 739 mmHg 93%
    06:00 +4°C° 0 mm 0 mps 739 mmHg 93%
    07:00 +4°C° 0 mm 0 mps 740 mmHg 92%
    08:00 +4°C° 0 mm 0 mps 740 mmHg 92%
    09:00 +4°C° 0 mm 0 mps 741 mmHg 92%
    10:00 +6°C° 0 mm 1 mps 741 mmHg 91%
    11:00 +7°C° 0 mm 1 mps 741 mmHg 89%
    12:00 +8°C° 0 mm 1 mps 741 mmHg 88%
    13:00 +8°C° 0 mm 1 mps 741 mmHg 90%
    14:00 +8°C° 0 mm 1 mps 741 mmHg 91%
    15:00 +8°C° 0 mm 1 mps 741 mmHg 93%
    16:00 +8°C° 0 mm 1 mps 741 mmHg 94%
    17:00 +8°C° 0 mm 1 mps 742 mmHg 95%
    18:00 +8°C° 0 mm 1 mps 742 mmHg 96%
    19:00 +7°C° 0 mm 2 mps 742 mmHg 96%
    20:00 +7°C° 0 mm 2 mps 742 mmHg 97%
    21:00 +8°C° 0 mm 2 mps 743 mmHg 97%
    22:00 +8°C° 0.1 mm 2 mps 743 mmHg 97%
    23:00 +8°C° 0.1 mm 2 mps 743 mmHg 98%

    19 December, Tuesday

    Time Temperature Precipitation Wind Pressure Humidity
    00:00 +8°C° 0.1 mm 2 mps 743 mmHg 98%
    01:00 +9°C° 0.1 mm 3 mps 743 mmHg 98%
    02:00 +9°C° 0.1 mm 3 mps 743 mmHg 98%
    03:00 +9°C° 0.1 mm 3 mps 743 mmHg 98%
    04:00 +9°C° 0 mm 3 mps 743 mmHg 97%
    05:00 +9°C° 0 mm 3 mps 743 mmHg 97%
    06:00 +9°C° 0 mm 3 mps 743 mmHg 96%
    07:00 +9°C° 0 mm 3 mps 744 mmHg 96%
    08:00 +9°C° 0 mm 3 mps 744 mmHg 96%
    09:00 +9°C° 0 mm 3 mps 744 mmHg 96%
    10:00 +9°C° 0.1 mm 3 mps 744 mmHg 96%
    11:00 +10°C° 0.1 mm 3 mps 745 mmHg 95%
    12:00 +11°C° 0.1 mm 4 mps 745 mmHg 94%
    13:00 +10°C° 0.1 mm 4 mps 745 mmHg 94%
    14:00 +10°C° 0.1 mm 4 mps 745 mmHg 95%
    15:00 +10°C° 0.1 mm 4 mps 745 mmHg 95%
    16:00 +10°C° 0 mm 4 mps 745 mmHg 95%
    17:00 +10°C° 0 mm 4 mps 745 mmHg 94%
    18:00 +10°C° 0 mm 4 mps 745 mmHg 94%
    19:00 +10°C° 0 mm 4 mps 746 mmHg 94%
    20:00 +8°C° 0 mm 4 mps 746 mmHg 94%
    21:00 +8°C° 0 mm 4 mps 746 mmHg 94%
    22:00 +8°C° 0 mm 4 mps 747 mmHg 95%
    23:00 +8°C° 0 mm 4 mps 747 mmHg 95%

    20 December, Wednesday

    Time Temperature Precipitation Wind Pressure Humidity
    00:00 +9°C° 0 mm 3 mps 747 mmHg 95%
    01:00 +8°C° 0 mm 3 mps 747 mmHg 95%
    02:00 +8°C° 0 mm 3 mps 747 mmHg 95%
    03:00 +8°C° 0 mm 3 mps 747 mmHg 95%
    04:00 +8°C° 0 mm 3 mps 747 mmHg 95%
    05:00 +7°C° 0 mm 3 mps 747 mmHg 95%
    06:00 +7°C° 0 mm 3 mps 747 mmHg 95%
    07:00 +7°C° 0 mm 3 mps 747 mmHg 95%
    08:00 +7°C° 0 mm 3 mps 748 mmHg 95%
    09:00 +7°C° 0 mm 3 mps 748 mmHg 95%
    10:00 +8°C° 0 mm 3 mps 748 mmHg 92%
    11:00 +8°C° 0 mm 4 mps 748 mmHg 89%
    12:00 +10°C° 0 mm 4 mps 748 mmHg 86%
    13:00 +8°C° 0 mm 4 mps 748 mmHg 88%
    14:00 +9°C° 0 mm 3 mps 748 mmHg 89%
    15:00 +9°C° 0 mm 3 mps 748 mmHg 90%
    16:00 +8°C° 0 mm 3 mps 748 mmHg 92%
    17:00 +7°C° 0 mm 3 mps 748 mmHg 93%
    18:00 +7°C° 0 mm 3 mps 748 mmHg 95%
    19:00 +5°C° 0 mm 3 mps 748 mmHg 95%
    20:00 +5°C° 0 mm 3 mps 748 mmHg 95%
    21:00 +5°C° 0 mm 3 mps 748 mmHg 95%
    22:00 +5°C° 0 mm 3 mps 748 mmHg 94%
    23:00 +5°C° 0 mm 3 mps 748 mmHg 93%
    Show more